Location: Fort Worth, Tx
(32.7431°N, 97.3695°W)
Time: 09:44:51
(UTC-04:00)

NOAA 19 - Visible Passes

Search period start: 21 March 2023 00:00
Search period end: 31 March 2023 00:00
Orbit: 839 x 861 km, 99.1° (Epoch: 21 March)

Date Brightness Start Highest point End Pass type
(mag) Time Alt. Az. Time Alt. Az. Time Alt. Az.
21 Mar 5.8 21:45:26 16° SE 21:49:13 36° ENE 21:54:10 10° N visible
21 Mar 7.2 23:27:25 18° SW 23:29:50 24° W 23:34:13 10° NW visible
22 Mar 6.1 21:33:13 12° ESE 21:37:18 28° ENE 21:41:52 10° NNE visible
22 Mar 6.7 23:15:13 22° SW 23:17:45 31° W 23:22:37 10° NW visible
23 Mar 6.4 21:21:21 10° ESE 21:25:25 22° ENE 21:29:27 10° NNE visible
23 Mar 6.3 23:02:59 25° SSW 23:05:42 41° W 23:10:52 10° NNW visible
24 Mar 6.7 21:10:12 10° ESE 21:13:32 17° ENE 21:16:51 10° NNE visible
24 Mar 5.8 22:50:46 27° SSW 22:53:40 55° W 22:59:02 10° NNW visible
25 Mar 5.3 22:38:33 27° S 22:41:39 72° WSW 22:47:07 10° NNW visible
26 Mar 5.1 22:26:20 25° SSE 22:29:38 87° ENE 22:35:08 10° NNW visible
27 Mar 5.1 22:14:06 22° SSE 22:17:39 67° ENE 22:23:05 10° N visible
27 Mar 7.9 23:56:32 10° WSW 23:58:39 12° W 00:00:47 10° WNW visible
28 Mar 5.4 22:01:54 19° SE 22:05:41 50° ENE 22:10:58 10° N visible
28 Mar 7.6 23:43:53 12° SW 23:46:31 17° W 23:49:56 10° NW visible
29 Mar 5.7 21:49:41 15° SE 21:53:44 39° ENE 21:58:46 10° N visible
29 Mar 7.3 23:31:40 15° SW 23:34:25 22° W 23:38:35 10° NW visible
30 Mar 6.0 21:37:27 11° SE 21:41:49 30° ENE 21:46:29 10° N visible
30 Mar 6.9 23:19:26 19° SW 23:22:20 29° W 23:27:02 10° NW visible
